Galena, AK

3:46 AM AKDT on October 22, 2019 (GMT -0800)
Pitka

Weather History for PAGA - September, 2019

Change the Weather History Date:

Tuesday, September 17, 2019

  Actual Average Record
Temperature  
Mean Temperature 38 °F -  
Max Temperature 46 °F 50 °F 64 °F (1969)
Min Temperature 30 °F 37 °F 22 °F (1992)
Degree Days  
Heating Degree Days 27    
Moisture  
Dew Point 26 °F    
Average Humidity 62    
Maximum Humidity 82    
Minimum Humidity 46    
Precipitation  
Precipitation 0.00 in - - ()
Sea Level Pressure  
Sea Level Pressure 29.76 in    
Wind  
Wind Speed 7 mph (NW)    
Max Wind Speed 9 mph    
Max Gust Speed -    
Visibility 10 miles    
Events      
Averages and records for this station are not official NWS values.
T = Trace of Precipitation, MM = Missing Value Source: NWS Daily Summary

Daily Weather History Graph

Daily Weather History Graph

Search for Another Location

Airport or City:

Astronomy

Sep. 17, 2019 Rise Set
Actual Time 7:55 AM AKDT 8:46 PM AKDT
Civil Twilight 7:06 AM AKDT 9:36 PM AKDT
Nautical Twilight 6:03 AM AKDT 10:38 PM AKDT
Astronomical Twilight 4:46 AM AKDT 11:53 PM AKDT
Moon 9:45 PM AKDT (9/17) 12:13 PM AKDT (9/17)
Length of Visible Light 14h 30m
Length of Day
12h 51m
Waning Gibbous, 88% of the Moon is Illuminated
Sep 17
Waning Gibbous
Sep 21
Last Quarter
Sep 28
New
Oct 5
First Quarter
Oct 13
Full

Hourly Weather History & Observations

Time (AKDT) Temp. Windchill Dew Point Humidity Pressure Visibility Wind Dir Wind Speed Gust Speed Precip Events Conditions
12:56 AM 37.9 °F 31.5 °F 27.0 °F 65% 29.82 in 10.0 mi West 9.2 mph - N/A   Clear
1:56 AM 36.0 °F 29.6 °F 26.1 °F 67% 29.83 in 10.0 mi West 8.1 mph - N/A   Clear
2:56 AM 35.1 °F 27.9 °F 25.0 °F 67% 29.83 in 10.0 mi West 9.2 mph - N/A   Clear
3:56 AM 34.0 °F 28.0 °F 25.0 °F 70% 29.83 in 10.0 mi West 6.9 mph - N/A   Clear
4:56 AM 32.0 °F 25.6 °F 25.0 °F 75% 29.83 in 10.0 mi West 6.9 mph - N/A   Clear
5:56 AM 32.0 °F 27.5 °F 25.0 °F 75% 29.83 in 10.0 mi West 4.6 mph - N/A   Clear
6:56 AM 32.0 °F 25.6 °F 25.0 °F 75% 29.83 in 10.0 mi West 6.9 mph - N/A   Clear
7:56 AM 30.0 °F 22.4 °F 25.0 °F 82% 29.83 in 10.0 mi West 8.1 mph - N/A   Clear
8:56 AM 30.9 °F 22.8 °F 26.1 °F 82% 29.83 in 10.0 mi WSW 9.2 mph - N/A   Clear
9:56 AM 34.0 °F 26.6 °F 25.0 °F 70% 29.83 in 10.0 mi West 9.2 mph - N/A   Clear
10:56 AM 37.0 °F 33.3 °F 26.1 °F 65% 29.82 in 10.0 mi West 4.6 mph - N/A   Clear
11:56 AM 39.0 °F 34.0 °F 25.0 °F 57% 29.82 in 10.0 mi West 6.9 mph - N/A   Clear
12:56 PM 39.9 °F 37.8 °F 25.0 °F 55% 29.81 in 10.0 mi Variable 3.5 mph - N/A   Scattered Clouds
1:56 PM 42.1 °F - 25.0 °F 51% 29.80 in 10.0 mi Calm Calm - N/A   Partly Cloudy
2:56 PM 43.0 °F 41.3 °F 26.1 °F 51% 29.78 in 10.0 mi Variable 3.5 mph - N/A   Clear
3:56 PM 45.0 °F 43.5 °F 26.1 °F 48% 29.75 in 10.0 mi SW 3.5 mph - N/A   Clear
4:56 PM 46.0 °F 43.1 °F 26.1 °F 46% 29.73 in 10.0 mi NNE 5.8 mph - N/A   Clear
5:56 PM 45.0 °F 41.2 °F 26.1 °F 48% 29.71 in 10.0 mi ENE 6.9 mph - N/A   Clear
6:56 PM 45.0 °F 42.6 °F 26.1 °F 48% 29.69 in 10.0 mi NNE 4.6 mph - N/A   Clear
7:56 PM 44.1 °F 40.8 °F 26.1 °F 49% 29.65 in 10.0 mi NE 5.8 mph - N/A   Clear
8:56 PM 41.0 °F 38.0 °F 26.1 °F 55% 29.62 in 10.0 mi NNE 4.6 mph - N/A   Clear
9:56 PM 39.0 °F 34.8 °F 26.1 °F 60% 29.59 in 10.0 mi NNE 5.8 mph - N/A   Clear
10:56 PM 37.0 °F 33.3 °F 26.1 °F 65% 29.57 in 10.0 mi NNE 4.6 mph - N/A   Clear
11:56 PM 36.0 °F 30.3 °F 25.0 °F 64% 29.52 in 10.0 mi NNE 6.9 mph - N/A   Clear